| time (UTC) | temp C | wind direction | speed KPH | gust KPH | rain 1hr cm | rain 24hr cm | rain mn cm | humidity % | barometer mb |
| 20260509174506 | 23 | 68 | 0.0 | 0.0 | 0.00 | 3.05 | 3.05 | 88 | 1010.6 |
| 20260509173020 | 22 | 68 | 0.0 | 0.0 | 0.00 | 3.05 | 3.05 | 90 | 1010.7 |
| 20260509170023 | 21 | 58 | 0.0 | 0.0 | 0.00 | 3.05 | 3.05 | 95 | 1010.9 |
| 20260509164516 | 21 | 58 | 0.0 | 0.0 | 0.00 | 3.05 | 3.05 | 95 | 1010.9 |
| 20260509163116 | 20 | 58 | 0.0 | 0.0 | 0.00 | 3.05 | 3.05 | 95 | 1010.8 |
| 20260509161515 | 20 | 47 | 0.0 | 0.0 | 0.00 | 3.05 | 3.05 | 95 | 1010.8 |
| 20260509160015 | 20 | 93 | 0.0 | 0.0 | 0.00 | 3.05 | 3.05 | 96 | 1010.6 |
| 20260509154621 | 20 | 93 | 0.0 | 0.0 | 0.00 | 3.05 | 3.05 | 96 | 1010.5 |
| 20260509151505 | 20 | 93 | 0.0 | 0.0 | 0.00 | 3.05 | 3.05 | 96 | 1010.0 |
| 20260509150108 | 20 | 72 | 0.0 | 0.0 | 0.00 | 3.05 | 3.05 | 96 | 1010.3 |
| 20260509144512 | 20 | 72 | 0.0 | 0.0 | 0.00 | 3.05 | 3.05 | 96 | 1010.5 |
| 20260509143011 | 19 | 60 | 0.0 | 0.0 | 0.00 | 3.05 | 3.05 | 96 | 1010.5 |
| 20260509141504 | 19 | 60 | 0.0 | 0.0 | 0.00 | 3.05 | 3.05 | 96 | 1010.7 |
| 20260509140014 | 18 | 60 | 0.0 | 0.0 | 0.00 | 3.05 | 3.05 | 96 | 1010.7 |
| 20260509134519 | 18 | 60 | 0.0 | 0.0 | 0.00 | 3.05 | 3.05 | 96 | 1010.9 |
| 20260509133105 | 18 | 60 | 0.0 | 0.0 | 0.00 | 3.05 | 3.05 | 96 | 1010.7 |
| 20260509131511 | 18 | 69 | 0.0 | 0.0 | 0.00 | 3.05 | 3.05 | 96 | 1010.4 |
| 20260509130027 | 18 | 53 | 0.0 | 0.0 | 0.00 | 3.05 | 3.05 | 96 | 1010.4 |
| 20260509124520 | 18 | 4 | 0.0 | 0.0 | 0.00 | 3.05 | 3.05 | 96 | 1010.4 |
| 20260509123019 | 18 | 4 | 0.0 | 0.0 | 0.00 | 3.05 | 3.05 | 96 | 1010.1 |
| 20260509121525 | 18 | 4 | 0.0 | 0.0 | 0.00 | 3.05 | 3.05 | 96 | 1010.3 |
| 20260509120005 | 18 | 4 | 0.0 | 0.0 | 0.00 | 3.05 | 3.05 | 96 | 1010.2 |
| 20260509114515 | 18 | 4 | 0.0 | 0.0 | 0.00 | 3.05 | 3.05 | 96 | 1010.0 |
| 20260509113019 | 18 | 41 | 0.0 | 0.0 | 0.00 | 3.05 | 3.05 | 96 | 1010.1 |
| 20260509111513 | 18 | 41 | 0.0 | 0.0 | 0.00 | 3.05 | 3.05 | 95 | 1009.8 |
| 20260509110120 | 18 | 18 | 0.0 | 0.0 | 0.00 | 3.05 | 3.05 | 96 | 1009.5 |
| 20260509104509 | 17 | 18 | 0.0 | 0.0 | 0.00 | 3.05 | 3.05 | 96 | 1009.5 |
| 20260509103011 | 17 | 18 | 0.0 | 0.0 | 0.00 | 3.05 | 3.05 | 95 | 1009.3 |
| 20260509101619 | 17 | 18 | 0.0 | 0.0 | 0.00 | 3.05 | 3.05 | 95 | 1009.2 |
| 20260509100009 | 17 | 18 | 0.0 | 0.0 | 0.00 | 3.05 | 3.05 | 95 | 1009.3 |
| 20260509094515 | 17 | 18 | 0.0 | 0.0 | 0.00 | 3.05 | 3.05 | 95 | 1009.4 |
| 20260509093010 | 17 | 25 | 0.0 | 1.6 | 0.00 | 3.05 | 3.05 | 95 | 1009.2 |
| 20260509091511 | 17 | 4 | 0.0 | 3.2 | 0.00 | 3.05 | 3.05 | 95 | 1009.2 |
| 20260509090020 | 17 | 198 | 0.0 | 0.0 | 0.00 | 3.05 | 3.05 | 95 | 1009.4 |
| 20260509084608 | 17 | 198 | 0.0 | 1.6 | 0.03 | 3.05 | 3.05 | 95 | 1009.0 |
| 20260509083031 | 17 | 198 | 0.0 | 0.0 | 0.05 | 3.05 | 3.05 | 94 | 1009.2 |
| 20260509081513 | 17 | 198 | 0.0 | 0.0 | 0.13 | 3.05 | 3.05 | 94 | 1009.9 |
| 20260509080120 | 17 | 91 | 0.0 | 0.0 | 0.86 | 3.05 | 3.05 | 94 | 1009.1 |
| 20260509074506 | 17 | 91 | 0.0 | 1.6 | 2.06 | 3.02 | 3.02 | 94 | 1008.4 |
| 20260509073007 | 17 | 228 | 0.0 | 8.0 | 2.97 | 2.97 | 2.97 | 93 | 1008.3 |
| 20260509070004 | 18 | 258 | 0.0 | 1.6 | 1.96 | 1.96 | 1.96 | 92 | 1011.7 |
| 20260509064605 | 20 | 325 | 3.2 | 30.6 | 1.07 | 1.07 | 1.07 | 89 | 1011.5 |
| 20260509063013 | 20 | 29 | 0.0 | 0.0 | 0.00 | 0.00 | 0.00 | 90 | 1010.4 |
| 20260509061505 | 20 | 29 | 0.0 | 0.0 | 0.00 | 0.00 | 0.00 | 90 | 1010.5 |
| 20260509060040 | 20 | 29 | 0.0 | 0.0 | 0.00 | 0.00 | 0.00 | 89 | 1010.1 |
| 20260509054505 | 20 | 45 | 0.0 | 0.0 | 0.00 | 0.00 | 0.00 | 89 | 1010.5 |
| 20260509051603 | 20 | 45 | 0.0 | 0.0 | 0.00 | 0.00 | 0.00 | 89 | 1010.0 |
| 20260509050018 | 20 | 45 | 0.0 | 0.0 | 0.00 | 0.00 | 0.00 | 89 | 1010.5 |
| 20260509044504 | 20 | 45 | 0.0 | 0.0 | 0.00 | 0.00 | 0.00 | 88 | 1010.6 |
| 20260509041521 | 20 | 345 | 0.0 | 0.0 | 0.00 | 0.00 | 0.00 | 88 | 1010.9 |
| 20260509040105 | 21 | 43 | 0.0 | 0.0 | 0.00 | 0.00 | 0.00 | 88 | 1010.7 |
| 20260509034508 | 21 | 56 | 0.0 | 0.0 | 0.00 | 0.00 | 0.00 | 87 | 1010.6 |
| 20260509033004 | 21 | 354 | 0.0 | 0.0 | 0.00 | 0.00 | 0.00 | 87 | 1010.3 |
| 20260509031509 | 21 | 354 | 0.0 | 0.0 | 0.00 | 0.00 | 0.00 | 87 | 1010.3 |
| 20260509030028 | 21 | 354 | 0.0 | 0.0 | 0.00 | 0.00 | 0.00 | 87 | 1010.2 |
| 20260509024516 | 21 | 4 | 0.0 | 0.0 | 0.00 | 0.00 | 0.00 | 87 | 1009.9 |
| 20260509023014 | 21 | 54 | 0.0 | 1.6 | 0.00 | 0.00 | 0.00 | 87 | 1009.4 |
| 20260509020018 | 21 | 277 | 0.0 | 1.6 | 0.00 | 0.00 | 0.00 | 86 | 1008.9 |
| 20260509014519 | 21 | 265 | 0.0 | 1.6 | 0.00 | 0.00 | 0.00 | 86 | 1008.7 |
| 20260509013107 | 21 | 265 | 0.0 | 1.6 | 0.00 | 0.00 | 0.00 | 85 | 1008.7 |
| 20260509011506 | 21 | 263 | 0.0 | 3.2 | 0.00 | 0.00 | 0.00 | 82 | 1008.4 |
| 20260509010007 | 21 | 242 | 0.0 | 3.2 | 0.00 | 0.00 | 0.00 | 80 | 1008.1 |
| 20260509004618 | 22 | 9 | 0.0 | 3.2 | 0.00 | 0.00 | 0.00 | 79 | 1007.7 |
| 20260509003018 | 23 | 194 | 0.0 | 6.4 | 0.00 | 0.00 | 0.00 | 76 | 1007.6 |
| 20260509001622 | 23 | 295 | 0.0 | 8.0 | 0.00 | 0.00 | 0.00 | 75 | 1008.7 |
| 20260509000120 | 23 | 315 | 0.0 | 1.6 | 0.00 | 0.00 | 0.00 | 74 | 1008.7 |
| 20260508233008 | 23 | 212 | 0.0 | 0.0 | 0.00 | 0.00 | 0.00 | 68 | 1009.8 |
| 20260508231613 | 24 | 212 | 0.0 | 0.0 | 0.00 | 0.00 | 0.00 | 66 | 1010.0 |
| 20260508230018 | 25 | 212 | 0.0 | 1.6 | 0.00 | 0.00 | 0.00 | 65 | 1009.6 |
| 20260508224515 | 25 | 91 | 1.6 | 8.0 | 0.00 | 0.00 | 0.00 | 67 | 1009.6 |
| 20260508223009 | 25 | 254 | 0.0 | 3.2 | 0.00 | 0.00 | 0.00 | 66 | 1009.3 |
| 20260508221508 | 26 | 65 | 1.6 | 9.7 | 0.00 | 0.00 | 0.00 | 64 | 1009.1 |
| 20260508220013 | 25 | 259 | 1.6 | 8.0 | 0.00 | 0.00 | 0.00 | 62 | 1009.2 |
| 20260508214510 | 25 | 349 | 0.0 | 1.6 | 0.00 | 0.00 | 0.00 | 62 | 1009.7 |
| 20260508213025 | 25 | 42 | 0.0 | 1.6 | 0.00 | 0.00 | 0.00 | 60 | 1009.6 |
| 20260508211516 | 26 | 118 | 0.0 | 8.0 | 0.00 | 0.00 | 0.00 | 57 | 1009.6 |
| 20260508210027 | 27 | 14 | 0.0 | 3.2 | 0.00 | 0.00 | 0.00 | 60 | 1009.7 |
| 20260508204605 | 27 | 209 | 0.0 | 8.0 | 0.00 | 0.00 | 0.00 | 55 | 1009.9 |
| 20260508203110 | 26 | 145 | 3.2 | 9.7 | 0.00 | 0.00 | 0.00 | 56 | 1009.8 |
| 20260508201519 | 27 | 326 | 0.0 | 6.4 | 0.00 | 0.00 | 0.00 | 59 | 1010.0 |
| 20260508200119 | 26 | 84 | 0.0 | 9.7 | 0.00 | 0.00 | 0.00 | 56 | 1010.2 |
| 20260508194520 | 25 | 89 | 1.6 | 8.0 | 0.00 | 0.00 | 0.00 | 60 | 1010.3 |
| 20260508193007 | 26 | 100 | 1.6 | 6.4 | 0.00 | 0.00 | 0.00 | 57 | 1010.7 |
| 20260508191611 | 26 | 243 | 0.0 | 8.0 | 0.00 | 0.00 | 0.00 | 62 | 1011.0 |
| 20260508190009 | 25 | 247 | 0.0 | 3.2 | 0.00 | 0.00 | 0.00 | 62 | 1011.2 |
| 20260508184516 | 25 | 273 | 0.0 | 3.2 | 0.00 | 0.00 | 0.00 | 59 | 1011.5 |
| 20260508183005 | 23 | 115 | 4.8 | 12.9 | 0.00 | 0.00 | 0.00 | 60 | 1011.7 |
| 20260508181513 | 23 | 93 | 3.2 | 9.7 | 0.00 | 0.00 | 0.00 | 61 | 1011.7 |
| 20260508180005 | 23 | 74 | 0.0 | 12.9 | 0.00 | 0.00 | 0.00 | 62 | 1012.0 |